Location: Aiyede
(8.4833°N, 4.4500°E)
Time: 02:37:01
(UTC+00:00)

Envisat - Pass Details

Date: 04 December 2020
Orbit: 764 x 766 km, 98.1° (Epoch: 23 January)

Event Time Altitude Azimuth Distance (km) Brightness Sun altitude
Rises 05:16:35 0° 11° (N) 3,219 6.1 -6.9°
Reaches altitude 10° 05:18:52 10° 11° (N) 2,293 5.4 -6.3°
Maximum altitude 05:23:56 87° 281° (W) 768 3.0 -5.2°
Drops below altitude 10° 05:29:00 10° 193° (SSW) 2,295 5.6 -4.0°
Sets 05:31:18 0° 193° (SSW) 3,221 6.4 -3.5°
